When you browse on this site, cookies collect data to enhance your experience and personalize the content and advertising you see.
Visit our Privacy Policy to learn more. By continuing to use the site, you agree to this use of cookies and data.
  • In Czech Republic
  • List of Countries
  • For 7 days
  • Water Temperature
  • Weather Map
  • Weather Widgets
  • user-avatar
    Login

    Hourly Weather Chyappara

    Today, 2 June, Tuesday

    Time Temperature Precipitation Wind Pressure Humidity
    00:00 +8°C° 0 mm 1 mps 737 mmHg 66%
    01:00 +7°C° 0 mm 1 mps 737 mmHg 65%
    02:00 +7°C° 0 mm 1 mps 737 mmHg 65%
    03:00 +6°C° 0 mm 1 mps 737 mmHg 63%
    04:00 +8°C° 0 mm 1 mps 737 mmHg 60%
    05:00 +9°C° 0 mm 1 mps 737 mmHg 56%
    06:00 +11°C° 0 mm 1 mps 738 mmHg 53%
    07:00 +13°C° 0 mm 1 mps 738 mmHg 47%
    08:00 +15°C° 0 mm 1 mps 738 mmHg 41%
    09:00 +17°C° 0 mm 2 mps 738 mmHg 34%
    10:00 +18°C° 0 mm 2 mps 738 mmHg 31%
    11:00 +19°C° 0 mm 2 mps 738 mmHg 29%
    12:00 +21°C° 0 mm 2 mps 737 mmHg 26%
    13:00 +21°C° 0 mm 2 mps 737 mmHg 26%
    14:00 +21°C° 0 mm 2 mps 737 mmHg 26%
    15:00 +21°C° 0 mm 2 mps 737 mmHg 27%
    16:00 +20°C° 0 mm 2 mps 737 mmHg 28%
    17:00 +20°C° 0 mm 2 mps 737 mmHg 30%
    18:00 +20°C° 0 mm 2 mps 737 mmHg 32%
    19:00 +17°C° 0 mm 2 mps 737 mmHg 43%
    20:00 +15°C° 0 mm 2 mps 737 mmHg 53%
    21:00 +13°C° 0 mm 2 mps 737 mmHg 64%
    22:00 +12°C° 0 mm 2 mps 737 mmHg 71%
    23:00 +9°C° 0 mm 2 mps 737 mmHg 77%

    Tomorrow, 3 June, Wednesday

    Time Temperature Precipitation Wind Pressure Humidity
    00:00 +8°C° 0 mm 2 mps 737 mmHg 84%
    01:00 +9°C° 0 mm 1 mps 737 mmHg 85%
    02:00 +8°C° 0 mm 1 mps 737 mmHg 86%
    03:00 +8°C° 0 mm 1 mps 738 mmHg 88%
    04:00 +10°C° 0 mm 1 mps 738 mmHg 79%
    05:00 +11°C° 0 mm 1 mps 738 mmHg 71%
    06:00 +13°C° 0 mm 1 mps 738 mmHg 63%
    07:00 +15°C° 0 mm 1 mps 738 mmHg 56%
    08:00 +19°C° 0 mm 1 mps 738 mmHg 49%
    09:00 +21°C° 0 mm 1 mps 738 mmHg 42%
    10:00 +22°C° 0 mm 1 mps 738 mmHg 37%
    11:00 +24°C° 0 mm 1 mps 738 mmHg 33%
    12:00 +24°C° 0 mm 0 mps 738 mmHg 29%
    13:00 +23°C° 0 mm 0 mps 738 mmHg 29%
    14:00 +23°C° 0 mm 0 mps 737 mmHg 30%
    15:00 +22°C° 0 mm 0 mps 737 mmHg 30%
    16:00 +22°C° 0 mm 0 mps 737 mmHg 31%
    17:00 +21°C° 0 mm 0 mps 737 mmHg 31%
    18:00 +21°C° 0 mm 0 mps 737 mmHg 32%
    19:00 +19°C° 0 mm 0 mps 737 mmHg 40%
    20:00 +19°C° 0 mm 1 mps 737 mmHg 47%
    21:00 +16°C° 0 mm 1 mps 737 mmHg 54%
    22:00 +14°C° 0 mm 1 mps 737 mmHg 58%
    23:00 +13°C° 0 mm 1 mps 738 mmHg 61%

    Day after tomorrow, 4 June, Thursday

    Time Temperature Precipitation Wind Pressure Humidity
    00:00 +12°C° 0 mm 1 mps 738 mmHg 65%
    01:00 +11°C° 0.1 mm 1 mps 738 mmHg 68%
    02:00 +11°C° 0.1 mm 1 mps 738 mmHg 71%
    03:00 +10°C° 0.1 mm 1 mps 738 mmHg 74%
    04:00 +12°C° 0.1 mm 1 mps 738 mmHg 73%
    05:00 +13°C° 0.1 mm 1 mps 738 mmHg 72%
    06:00 +14°C° 0.1 mm 1 mps 738 mmHg 71%
    07:00 +16°C° 0 mm 1 mps 739 mmHg 62%
    08:00 +19°C° 0 mm 1 mps 739 mmHg 54%
    09:00 +21°C° 0 mm 1 mps 739 mmHg 45%
    10:00 +22°C° 0 mm 1 mps 738 mmHg 42%
    11:00 +23°C° 0 mm 2 mps 738 mmHg 39%
    12:00 +23°C° 0 mm 2 mps 738 mmHg 35%
    13:00 +21°C° 0.2 mm 2 mps 738 mmHg 42%
    14:00 +20°C° 0.2 mm 3 mps 737 mmHg 48%
    15:00 +19°C° 0.2 mm 4 mps 737 mmHg 54%
    16:00 +18°C° 0.6 mm 3 mps 737 mmHg 58%
    17:00 +17°C° 0.6 mm 2 mps 737 mmHg 62%
    18:00 +17°C° 0.6 mm 2 mps 737 mmHg 66%
    19:00 +15°C° 0.1 mm 2 mps 737 mmHg 72%
    20:00 +14°C° 0.1 mm 2 mps 738 mmHg 77%
    21:00 +13°C° 0.1 mm 2 mps 738 mmHg 82%
    22:00 +12°C° 0.1 mm 2 mps 738 mmHg 85%
    23:00 +10°C° 0.1 mm 2 mps 738 mmHg 87%

    5 June, Friday

    Time Temperature Precipitation Wind Pressure Humidity
    00:00 +9°C° 0.1 mm 2 mps 739 mmHg 89%
    01:00 +9°C° 0 mm 2 mps 739 mmHg 86%
    02:00 +9°C° 0 mm 2 mps 739 mmHg 84%
    03:00 +9°C° 0 mm 2 mps 739 mmHg 81%
    04:00 +10°C° 0 mm 2 mps 739 mmHg 78%
    05:00 +10°C° 0 mm 2 mps 739 mmHg 76%
    06:00 +12°C° 0 mm 2 mps 739 mmHg 74%
    07:00 +14°C° 0 mm 2 mps 739 mmHg 67%
    08:00 +14°C° 0 mm 3 mps 740 mmHg 61%
    09:00 +16°C° 0 mm 3 mps 740 mmHg 55%
    10:00 +17°C° 0 mm 3 mps 739 mmHg 54%
    11:00 +17°C° 0 mm 3 mps 739 mmHg 53%
    12:00 +17°C° 0 mm 3 mps 739 mmHg 52%
    13:00 +17°C° 0 mm 3 mps 739 mmHg 50%
    14:00 +18°C° 0 mm 3 mps 739 mmHg 47%
    15:00 +18°C° 0 mm 2 mps 738 mmHg 45%
    16:00 +18°C° 0 mm 2 mps 738 mmHg 45%
    17:00 +18°C° 0 mm 2 mps 738 mmHg 45%
    18:00 +18°C° 0 mm 2 mps 738 mmHg 45%
    19:00 +17°C° 0 mm 2 mps 738 mmHg 52%
    20:00 +15°C° 0 mm 2 mps 738 mmHg 59%
    21:00 +14°C° 0 mm 2 mps 738 mmHg 66%
    22:00 +12°C° 0 mm 2 mps 738 mmHg 71%
    23:00 +10°C° 0 mm 2 mps 738 mmHg 76%

    6 June, Saturday

    Time Temperature Precipitation Wind Pressure Humidity
    00:00 +9°C° 0 mm 2 mps 738 mmHg 80%
    01:00 +9°C° 0 mm 2 mps 738 mmHg 84%
    02:00 +9°C° 0 mm 1 mps 738 mmHg 87%
    03:00 +9°C° 0 mm 1 mps 738 mmHg 91%
    04:00 +10°C° 0 mm 1 mps 738 mmHg 86%
    05:00 +12°C° 0 mm 1 mps 738 mmHg 81%
    06:00 +13°C° 0 mm 1 mps 738 mmHg 76%
    07:00 +14°C° 0.3 mm 2 mps 738 mmHg 74%
    08:00 +15°C° 0.3 mm 2 mps 738 mmHg 71%
    09:00 +16°C° 0.3 mm 2 mps 738 mmHg 69%
    10:00 +17°C° 0.3 mm 2 mps 738 mmHg 61%
    11:00 +19°C° 0.3 mm 2 mps 738 mmHg 53%
    12:00 +20°C° 0.3 mm 2 mps 738 mmHg 45%
    13:00 +20°C° 0 mm 2 mps 738 mmHg 44%
    14:00 +20°C° 0 mm 2 mps 737 mmHg 43%
    15:00 +20°C° 0 mm 2 mps 737 mmHg 42%
    16:00 +19°C° 0.2 mm 2 mps 737 mmHg 49%
    17:00 +19°C° 0.2 mm 2 mps 737 mmHg 55%
    18:00 +18°C° 0.2 mm 2 mps 737 mmHg 62%
    19:00 +16°C° 0.1 mm 2 mps 737 mmHg 69%
    20:00 +15°C° 0.1 mm 2 mps 737 mmHg 75%
    21:00 +13°C° 0.1 mm 2 mps 738 mmHg 82%
    22:00 +12°C° 0 mm 2 mps 738 mmHg 84%
    23:00 +10°C° 0 mm 2 mps 738 mmHg 86%

    7 June, Sunday

    Time Temperature Precipitation Wind Pressure Humidity
    00:00 +9°C° 0 mm 2 mps 738 mmHg 88%
    01:00 +9°C° 0 mm 2 mps 738 mmHg 89%
    02:00 +8°C° 0 mm 2 mps 738 mmHg 90%
    03:00 +7°C° 0 mm 2 mps 739 mmHg 91%
    04:00 +8°C° 0 mm 3 mps 739 mmHg 86%
    05:00 +9°C° 0 mm 3 mps 739 mmHg 80%
    06:00 +10°C° 0 mm 3 mps 739 mmHg 75%
    07:00 +12°C° 0 mm 3 mps 739 mmHg 67%
    08:00 +14°C° 0 mm 4 mps 739 mmHg 58%
    09:00 +17°C° 0 mm 4 mps 739 mmHg 50%
    10:00 +18°C° 0 mm 4 mps 739 mmHg 47%
    11:00 +19°C° 0 mm 4 mps 738 mmHg 45%
    12:00 +19°C° 0 mm 4 mps 738 mmHg 42%
    13:00 +19°C° 0 mm 4 mps 738 mmHg 43%
    14:00 +19°C° 0 mm 4 mps 738 mmHg 45%
    15:00 +19°C° 0 mm 4 mps 738 mmHg 46%
    16:00 +19°C° 0 mm 4 mps 738 mmHg 48%
    17:00 +19°C° 0 mm 3 mps 737 mmHg 50%
    18:00 +18°C° 0 mm 3 mps 737 mmHg 53%
    19:00 +17°C° 0 mm 3 mps 738 mmHg 58%
    20:00 +16°C° 0 mm 3 mps 738 mmHg 64%
    21:00 +13°C° 0 mm 3 mps 738 mmHg 69%
    22:00 +13°C° 0 mm 3 mps 738 mmHg 69%
    23:00 +12°C° 0 mm 3 mps 738 mmHg 69%
    Show more